Location: Boćki
(52.6512°N, 23.0459°E)
Time: 13:29:33
(UTC+01:00)

ISS - Pass Details

Date: 02 February 2019
Orbit: 403 x 411 km, 51.6° (Epoch: 23 February)

Event Time Altitude Azimuth Distance (km) Brightness Sun altitude
Rises 18:03:51 0° 275° (W) 2,338 1.7 -16.6°
Reaches altitude 10° 18:05:56 10° 273° (W) 1,477 0.3 -16.9°
Maximum altitude 18:09:13 66° 191° (S) 453 -3.6 -17.4°
Enters shadow 18:10:00 46° 129° (SE) 561 -3.5 -17.5°
